RYR5859 EGSS-EPMO

Flight info

Callsign RYR5859
Flight time 1h 53m
Altitude 37000
Route CLN P44 RATLO M197 REDFA L620 TACHA DCT RKN L980 HLZ DCT SUBIX DCT OBOKU DCT DOSIX
Aircraft B738/M-SDE2E3FGHIRWXY/LB1

Departure

Time 2026-05-06 16:17
Airport London Stansted Airport (EGSS)

Arrival

Time 2026-05-06 18:11
Airport Warsaw Modlin Airport (EPMO)
Time Latitude Longitude Altitude Speed Heading
2026-05-06 15:39 51.89349 0.26043 347 ft 0 kts 224°
2026-05-06 16:01 51.89359 0.26060 349 ft 2 kts 227°
2026-05-06 16:01 51.89370 0.26080 350 ft 2 kts 233°
2026-05-06 16:01 51.89378 0.26103 350 ft 2 kts 261°
2026-05-06 16:01 51.89375 0.26127 351 ft 2 kts 308°
2026-05-06 16:02 51.89371 0.26135 351 ft 0 kts 311°
2026-05-06 16:08 51.89384 0.26113 351 ft 7 kts 313°
2026-05-06 16:08 51.89431 0.26030 348 ft 12 kts 313°
2026-05-06 16:08 51.89473 0.25959 348 ft 9 kts 314°
2026-05-06 16:09 51.89541 0.25858 342 ft 16 kts 330°
2026-05-06 16:09 51.89611 0.25744 349 ft 10 kts 288°
2026-05-06 16:09 51.89581 0.25651 347 ft 11 kts 219°
2026-05-06 16:09 51.89515 0.25555 345 ft 14 kts 222°
2026-05-06 16:10 51.89436 0.25441 352 ft 17 kts 223°
2026-05-06 16:10 51.89343 0.25300 343 ft 20 kts 223°
2026-05-06 16:10 51.89245 0.25123 347 ft 23 kts 237°
2026-05-06 16:10 51.89136 0.24921 342 ft 25 kts 221°
2026-05-06 16:11 51.89048 0.24790 349 ft 26 kts 223°
2026-05-06 16:11 51.88916 0.24588 349 ft 25 kts 223°
2026-05-06 16:11 51.88790 0.24400 343 ft 24 kts 223°
2026-05-06 16:11 51.88652 0.24192 345 ft 30 kts 223°
2026-05-06 16:12 51.88497 0.23961 336 ft 30 kts 223°
2026-05-06 16:12 51.88349 0.23737 337 ft 28 kts 223°
2026-05-06 16:12 51.88208 0.23526 335 ft 27 kts 223°
2026-05-06 16:12 51.88074 0.23326 335 ft 28 kts 223°
2026-05-06 16:13 51.87927 0.23105 335 ft 28 kts 221°
2026-05-06 16:13 51.87786 0.22895 334 ft 27 kts 223°
2026-05-06 16:13 51.87654 0.22697 335 ft 25 kts 223°
2026-05-06 16:13 51.87539 0.22524 330 ft 9 kts 223°
2026-05-06 16:14 51.87523 0.22427 330 ft 12 kts 290°
2026-05-06 16:14 51.87541 0.22389 330 ft 0 kts 313°
2026-05-06 16:15 51.87555 0.22366 331 ft 11 kts 314°
2026-05-06 16:15 51.87567 0.22346 331 ft 0 kts 314°
2026-05-06 16:15 51.87568 0.22344 331 ft 1 kts 314°
2026-05-06 16:16 51.87582 0.22321 328 ft 4 kts 314°
2026-05-06 16:16 51.87616 0.22279 327 ft 9 kts 332°
2026-05-06 16:16 51.87689 0.22271 326 ft 13 kts 19°
2026-05-06 16:16 51.87728 0.22321 331 ft 0 kts 42°
2026-05-06 16:17 51.87729 0.22322 331 ft 4 kts 42°
2026-05-06 16:17 51.87988 0.22705 334 ft 99 kts 43°
2026-05-06 16:17 51.88699 0.23783 372 ft 177 kts 42°
2026-05-06 16:17 51.89616 0.25306 1315 ft 197 kts 44°
2026-05-06 16:18 51.90688 0.26772 2455 ft 196 kts 35°
2026-05-06 16:18 51.91587 0.28546 3199 ft 218 kts 65°
2026-05-06 16:18 51.91717 0.31071 3729 ft 236 kts 99°
2026-05-06 16:18 51.91145 0.33623 3968 ft 244 kts 113°
2026-05-06 16:19 51.90402 0.36090 3997 ft 243 kts 113°
2026-05-06 16:19 51.89654 0.38551 3990 ft 245 kts 114°
2026-05-06 16:19 51.88902 0.41042 3988 ft 251 kts 114°
2026-05-06 16:19 51.88125 0.43642 3980 ft 264 kts 114°
2026-05-06 16:20 51.87331 0.46324 4016 ft 266 kts 112°
2026-05-06 16:20 51.86528 0.49051 4659 ft 266 kts 114°
2026-05-06 16:20 51.85727 0.51775 4959 ft 268 kts 114°
2026-05-06 16:20 51.84927 0.54493 5051 ft 267 kts 115°
2026-05-06 16:21 51.84129 0.57205 5685 ft 265 kts 114°
2026-05-06 16:21 51.83393 0.59945 5932 ft 266 kts 107°
2026-05-06 16:21 51.83025 0.62829 5969 ft 258 kts 95°
2026-05-06 16:21 51.82972 0.65718 5986 ft 257 kts 87°
2026-05-06 16:22 51.83080 0.68611 5987 ft 260 kts 85°
2026-05-06 16:22 51.83212 0.71548 6107 ft 266 kts 85°
2026-05-06 16:22 51.83347 0.74556 6899 ft 271 kts 85°
2026-05-06 16:22 51.83469 0.77549 7861 ft 273 kts 85°
2026-05-06 16:23 51.83592 0.80669 8639 ft 282 kts 85°
2026-05-06 16:23 51.83712 0.83885 9476 ft 290 kts 85°
2026-05-06 16:23 51.83832 0.87170 10294 ft 297 kts 84°
2026-05-06 16:23 51.83958 0.90631 10630 ft 322 kts 85°
2026-05-06 16:24 51.84092 0.94377 10943 ft 344 kts 85°
2026-05-06 16:24 51.84231 0.98312 11576 ft 354 kts 86°
2026-05-06 16:24 51.84371 1.02304 12404 ft 358 kts 86°
2026-05-06 16:24 51.84512 1.06359 13227 ft 363 kts 86°
2026-05-06 16:25 51.84653 1.10451 14021 ft 367 kts 86°
2026-05-06 16:25 51.84848 1.14599 14758 ft 372 kts 79°
2026-05-06 16:25 51.85676 1.18572 15489 ft 374 kts 65°
2026-05-06 16:25 51.86755 1.22424 16238 ft 378 kts 64°
2026-05-06 16:26 51.87851 1.26324 16931 ft 384 kts 65°
2026-05-06 16:26 51.88957 1.30304 17640 ft 389 kts 65°
2026-05-06 16:26 51.90058 1.34328 18337 ft 393 kts 65°
2026-05-06 16:26 51.91162 1.38405 18955 ft 397 kts 65°
2026-05-06 16:27 51.92269 1.42527 19580 ft 401 kts 66°
2026-05-06 16:27 51.93371 1.46645 20191 ft 404 kts 66°
2026-05-06 16:27 51.94490 1.50841 20786 ft 408 kts 66°
2026-05-06 16:27 51.95623 1.55095 21385 ft 412 kts 66°
2026-05-06 16:28 51.96763 1.59380 21984 ft 415 kts 66°
2026-05-06 16:28 51.97914 1.63714 22552 ft 419 kts 66°
2026-05-06 16:28 51.99057 1.68094 23126 ft 423 kts 68°
2026-05-06 16:28 51.99952 1.72657 23650 ft 427 kts 75°
2026-05-06 16:29 52.00677 1.77295 24127 ft 429 kts 76°
2026-05-06 16:29 52.01372 1.82022 24597 ft 432 kts 76°
2026-05-06 16:29 52.02070 1.86791 25068 ft 435 kts 76°
2026-05-06 16:29 52.02782 1.91574 25518 ft 437 kts 76°
2026-05-06 16:30 52.03510 1.96382 25942 ft 441 kts 76°
2026-05-06 16:30 52.04011 1.99658 26183 ft 444 kts 76°
2026-05-06 16:30 52.05009 2.06145 26729 ft 448 kts 76°
2026-05-06 16:30 52.05770 2.11084 27208 ft 450 kts 76°
2026-05-06 16:31 52.06530 2.16022 27622 ft 452 kts 76°
2026-05-06 16:31 52.07292 2.21002 28015 ft 455 kts 77°
2026-05-06 16:31 52.08058 2.26020 28392 ft 458 kts 77°
2026-05-06 16:31 52.08824 2.31060 28785 ft 460 kts 77°
2026-05-06 16:32 52.09593 2.36135 29159 ft 463 kts 77°
2026-05-06 16:32 52.10363 2.41230 29546 ft 465 kts 77°
2026-05-06 16:32 52.11134 2.46355 29887 ft 467 kts 77°
2026-05-06 16:32 52.11949 2.51489 30216 ft 469 kts 75°
2026-05-06 16:33 52.12881 2.56596 30489 ft 472 kts 73°
2026-05-06 16:33 52.13869 2.61695 30795 ft 473 kts 73°
2026-05-06 16:33 52.14874 2.66811 31122 ft 474 kts 73°
2026-05-06 16:34 52.16842 2.76990 31974 ft 471 kts 73°
2026-05-06 16:34 52.17796 2.82026 32344 ft 470 kts 73°
2026-05-06 16:34 52.18753 2.87127 32667 ft 471 kts 73°
2026-05-06 16:34 52.19704 2.92221 33144 ft 468 kts 73°
2026-05-06 16:35 52.20649 2.97300 33453 ft 468 kts 73°
2026-05-06 16:35 52.21591 3.02375 33856 ft 467 kts 73°
2026-05-06 16:35 52.22530 3.07441 34100 ft 468 kts 73°
2026-05-06 16:35 52.23470 3.12522 34436 ft 466 kts 73°
2026-05-06 16:36 52.24408 3.17606 34672 ft 468 kts 73°
2026-05-06 16:36 52.25243 3.22759 34873 ft 469 kts 80°
2026-05-06 16:36 52.25619 3.27978 35054 ft 470 kts 90°
2026-05-06 16:36 52.25551 3.33304 35392 ft 467 kts 93°
2026-05-06 16:37 52.25412 3.38622 35658 ft 468 kts 94°
2026-05-06 16:37 52.25257 3.43939 35805 ft 470 kts 94°
2026-05-06 16:37 52.25104 3.49267 36086 ft 469 kts 94°
2026-05-06 16:37 52.24962 3.54600 36265 ft 472 kts 93°
2026-05-06 16:38 52.24826 3.59931 36588 ft 469 kts 94°
2026-05-06 16:38 52.24697 3.65258 36856 ft 469 kts 94°
2026-05-06 16:38 52.24571 3.70527 36932 ft 473 kts 93°
2026-05-06 16:39 52.24309 3.81338 36927 ft 478 kts 94°
2026-05-06 16:39 52.24037 3.92150 36912 ft 474 kts 94°
2026-05-06 16:40 52.23759 4.02821 36909 ft 467 kts 94°
2026-05-06 16:40 52.23478 4.13288 36916 ft 462 kts 94°
2026-05-06 16:41 52.23183 4.23821 36927 ft 466 kts 94°
2026-05-06 16:41 52.22874 4.34485 36914 ft 473 kts 94°
2026-05-06 16:42 52.22555 4.45225 36916 ft 476 kts 94°
2026-05-06 16:42 52.22224 4.56021 36898 ft 474 kts 94°
2026-05-06 16:43 52.21890 4.66658 36904 ft 466 kts 94°
2026-05-06 16:43 52.21546 4.77230 36914 ft 466 kts 95°
2026-05-06 16:44 52.21194 4.87766 36910 ft 466 kts 95°
2026-05-06 16:44 52.20832 4.98319 36776 ft 465 kts 95°
2026-05-06 16:45 52.20465 5.08768 36889 ft 464 kts 95°
2026-05-06 16:45 52.20085 5.19301 36911 ft 466 kts 95°
2026-05-06 16:46 52.19694 5.29863 36913 ft 469 kts 95°
2026-05-06 16:46 52.19290 5.40535 36913 ft 471 kts 95°
2026-05-06 16:47 52.18875 5.51237 36904 ft 474 kts 95°
2026-05-06 16:47 52.18452 5.61904 36908 ft 475 kts 96°
2026-05-06 16:48 52.18012 5.72738 36904 ft 477 kts 96°
2026-05-06 16:48 52.17566 5.83506 36912 ft 477 kts 96°
2026-05-06 16:49 52.17111 5.94213 36890 ft 476 kts 96°
2026-05-06 16:49 52.16645 6.04974 36904 ft 476 kts 96°
2026-05-06 16:50 52.16169 6.15730 36891 ft 475 kts 96°
2026-05-06 16:50 52.15684 6.26457 36899 ft 474 kts 96°
2026-05-06 16:51 52.15191 6.37169 36877 ft 474 kts 96°
2026-05-06 16:51 52.14688 6.47875 36866 ft 474 kts 97°
2026-05-06 16:52 52.14178 6.58505 36876 ft 474 kts 97°
2026-05-06 16:52 52.13656 6.69226 36881 ft 474 kts 97°
2026-05-06 16:53 52.13329 6.79985 36866 ft 478 kts 88°
2026-05-06 16:53 52.13823 6.88957 36875 ft 479 kts 86°
2026-05-06 16:54 52.14523 7.01523 36872 ft 480 kts 87°
2026-05-06 16:54 52.14977 7.10550 36876 ft 481 kts 88°
2026-05-06 16:55 52.15512 7.21416 36866 ft 483 kts 87°
2026-05-06 16:55 52.16047 7.32319 36871 ft 484 kts 88°
2026-05-06 16:56 52.16574 7.43254 36850 ft 484 kts 88°
2026-05-06 16:56 52.17091 7.54215 36880 ft 485 kts 88°
2026-05-06 16:57 52.17600 7.65178 36881 ft 485 kts 88°
2026-05-06 16:57 52.18031 7.76184 36890 ft 485 kts 89°
2026-05-06 16:58 52.18424 7.87168 36881 ft 486 kts 88°
2026-05-06 16:58 52.18865 7.98176 36868 ft 486 kts 88°
2026-05-06 16:59 52.19287 8.09093 36854 ft 486 kts 89°
2026-05-06 16:59 52.19694 8.20097 36858 ft 486 kts 89°
2026-05-06 17:00 52.20092 8.31116 36838 ft 486 kts 89°
2026-05-06 17:00 52.20499 8.42109 36831 ft 486 kts 89°
2026-05-06 17:01 52.20900 8.53124 36844 ft 486 kts 89°
2026-05-06 17:01 52.21296 8.64121 36846 ft 487 kts 88°
2026-05-06 17:02 52.21682 8.75142 36838 ft 487 kts 89°
2026-05-06 17:02 52.22054 8.86024 36830 ft 487 kts 89°
2026-05-06 17:03 52.22421 8.97047 36823 ft 487 kts 89°
2026-05-06 17:03 52.22781 9.08073 36828 ft 487 kts 89°
2026-05-06 17:04 52.23144 9.19045 36838 ft 487 kts 89°
2026-05-06 17:04 52.23498 9.30079 36827 ft 487 kts 89°
2026-05-06 17:05 52.23822 9.41112 36831 ft 487 kts 89°
2026-05-06 17:05 52.24135 9.52174 36834 ft 488 kts 89°
2026-05-06 17:06 52.24442 9.63281 36829 ft 488 kts 89°
2026-05-06 17:06 52.24739 9.74342 36818 ft 487 kts 89°
2026-05-06 17:07 52.25024 9.85308 36828 ft 486 kts 89°
2026-05-06 17:07 52.25921 9.96239 36828 ft 487 kts 79°
2026-05-06 17:08 52.27371 10.07047 36824 ft 486 kts 78°
2026-05-06 17:08 52.28796 10.17857 36812 ft 486 kts 79°
2026-05-06 17:09 52.30152 10.28669 36817 ft 486 kts 79°
2026-05-06 17:09 52.31479 10.39509 36824 ft 486 kts 80°
2026-05-06 17:10 52.32793 10.50314 36796 ft 488 kts 80°
2026-05-06 17:10 52.34121 10.61287 36801 ft 488 kts 80°
2026-05-06 17:11 52.35422 10.72116 36808 ft 489 kts 80°
2026-05-06 17:11 52.36514 10.83097 36796 ft 487 kts 88°
2026-05-06 17:12 52.36737 10.94160 36806 ft 486 kts 91°
2026-05-06 17:12 52.36847 11.05229 36793 ft 486 kts 91°
2026-05-06 17:13 52.36995 11.16298 36810 ft 486 kts 90°
2026-05-06 17:13 52.37173 11.27372 36811 ft 486 kts 90°
2026-05-06 17:14 52.37352 11.38366 36810 ft 487 kts 90°
2026-05-06 17:14 52.37522 11.49435 36786 ft 487 kts 91°
2026-05-06 17:15 52.37680 11.60513 36810 ft 487 kts 91°
2026-05-06 17:15 52.37826 11.71626 36812 ft 487 kts 91°
2026-05-06 17:16 52.37961 11.82656 36819 ft 487 kts 91°
2026-05-06 17:16 52.38087 11.93756 36809 ft 487 kts 91°
2026-05-06 17:17 52.38202 12.04863 36806 ft 487 kts 91°
2026-05-06 17:17 52.38306 12.15946 36834 ft 487 kts 91°
2026-05-06 17:18 52.38401 12.27034 36816 ft 487 kts 91°
2026-05-06 17:18 52.38484 12.38125 36818 ft 487 kts 92°
2026-05-06 17:19 52.38558 12.49218 36817 ft 487 kts 92°
2026-05-06 17:19 52.38621 12.60298 36823 ft 487 kts 92°
2026-05-06 17:20 52.38674 12.71401 36826 ft 487 kts 92°
2026-05-06 17:20 52.38716 12.82434 36820 ft 487 kts 92°
2026-05-06 17:21 52.38748 12.93522 36832 ft 487 kts 92°
2026-05-06 17:21 52.38770 13.04608 36813 ft 487 kts 92°
2026-05-06 17:22 52.38781 13.15702 36838 ft 486 kts 92°
2026-05-06 17:22 52.38782 13.26796 36828 ft 487 kts 92°
2026-05-06 17:23 52.38773 13.37812 36834 ft 487 kts 92°
2026-05-06 17:23 52.38753 13.48893 36829 ft 487 kts 92°
2026-05-06 17:24 52.38723 13.59969 36829 ft 486 kts 92°
2026-05-06 17:24 52.38682 13.71064 36831 ft 486 kts 93°
2026-05-06 17:25 52.38631 13.82149 36833 ft 487 kts 93°
2026-05-06 17:25 52.38570 13.93231 36827 ft 487 kts 93°
2026-05-06 17:26 52.38499 14.04322 36819 ft 487 kts 93°
2026-05-06 17:26 52.38417 14.15403 36826 ft 487 kts 93°
2026-05-06 17:27 52.38325 14.26474 36826 ft 486 kts 93°
2026-05-06 17:27 52.38222 14.37543 36834 ft 486 kts 94°
2026-05-06 17:28 52.38111 14.48603 36821 ft 486 kts 94°
2026-05-06 17:28 52.37989 14.59586 36820 ft 485 kts 94°
2026-05-06 17:29 52.37759 14.70620 36825 ft 484 kts 95°
2026-05-06 17:29 52.37465 14.81628 36818 ft 484 kts 95°
2026-05-06 17:30 52.37168 14.92633 36824 ft 484 kts 95°
2026-05-06 17:30 52.36874 15.03639 36901 ft 484 kts 96°
2026-05-06 17:31 52.36574 15.14652 36813 ft 485 kts 96°
2026-05-06 17:31 52.36264 15.25678 36819 ft 484 kts 97°
2026-05-06 17:32 52.35946 15.36614 36817 ft 484 kts 97°
2026-05-06 17:32 52.35616 15.47594 36815 ft 483 kts 97°
2026-05-06 17:33 52.35275 15.58588 36786 ft 482 kts 97°
2026-05-06 17:33 52.34925 15.69528 36810 ft 482 kts 97°
2026-05-06 17:34 52.34564 15.80501 36807 ft 482 kts 97°
2026-05-06 17:34 52.34258 15.89593 36809 ft 482 kts 97°
2026-05-06 17:35 52.33879 16.00540 36815 ft 483 kts 97°
2026-05-06 17:35 52.33489 16.11518 36809 ft 485 kts 97°
2026-05-06 17:36 52.32882 16.28078 36808 ft 486 kts 97°
2026-05-06 17:36 52.32466 16.39089 36808 ft 485 kts 97°
2026-05-06 17:37 52.32043 16.50016 36807 ft 484 kts 97°
2026-05-06 17:37 52.31607 16.60994 36800 ft 483 kts 97°
2026-05-06 17:38 52.31160 16.71978 36810 ft 485 kts 98°
2026-05-06 17:38 52.30701 16.83003 36796 ft 486 kts 98°
2026-05-06 17:39 52.30466 16.88548 36423 ft 490 kts 98°
2026-05-06 17:39 52.30228 16.94100 35963 ft 490 kts 98°
2026-05-06 17:39 52.29990 16.99637 35514 ft 486 kts 98°
2026-05-06 17:39 52.29751 17.05142 35067 ft 484 kts 98°
2026-05-06 17:40 52.29512 17.10555 34612 ft 484 kts 98°
2026-05-06 17:40 52.29267 17.16036 34187 ft 484 kts 99°
2026-05-06 17:40 52.29019 17.21527 33758 ft 484 kts 99°
2026-05-06 17:40 52.28769 17.27015 33251 ft 484 kts 99°
2026-05-06 17:41 52.28516 17.32498 32781 ft 485 kts 99°
2026-05-06 17:41 52.28260 17.37985 32312 ft 485 kts 99°
2026-05-06 17:41 52.28002 17.43485 31838 ft 486 kts 99°
2026-05-06 17:41 52.27741 17.48991 31347 ft 487 kts 99°
2026-05-06 17:42 52.27477 17.54495 30871 ft 488 kts 99°
2026-05-06 17:42 52.27209 17.60040 30369 ft 488 kts 99°
2026-05-06 17:42 52.27015 17.64012 30063 ft 487 kts 99°
2026-05-06 17:42 52.26751 17.69449 29811 ft 473 kts 99°
2026-05-06 17:43 52.26491 17.74760 29348 ft 466 kts 99°
2026-05-06 17:43 52.26229 17.79990 28879 ft 459 kts 100°
2026-05-06 17:43 52.25966 17.85162 28381 ft 454 kts 100°
2026-05-06 17:43 52.25705 17.90266 27875 ft 449 kts 100°
2026-05-06 17:44 52.25445 17.95328 27394 ft 444 kts 100°
2026-05-06 17:44 52.25264 18.00286 26901 ft 443 kts 94°
2026-05-06 17:44 52.25517 18.05307 26478 ft 443 kts 86°
2026-05-06 17:44 52.25940 18.10276 25976 ft 440 kts 85°
2026-05-06 17:45 52.26381 18.15196 25519 ft 436 kts 85°
2026-05-06 17:45 52.26816 18.20087 25056 ft 433 kts 85°
2026-05-06 17:45 52.27237 18.24944 24594 ft 431 kts 86°
2026-05-06 17:45 52.27643 18.29775 24129 ft 428 kts 86°
2026-05-06 17:46 52.28036 18.34578 23652 ft 427 kts 86°
2026-05-06 17:46 52.28425 18.39388 23144 ft 425 kts 86°
2026-05-06 17:46 52.28805 18.44154 22630 ft 422 kts 86°
2026-05-06 17:46 52.29183 18.48911 22144 ft 419 kts 86°
2026-05-06 17:47 52.29554 18.53609 21669 ft 416 kts 86°
2026-05-06 17:47 52.29921 18.58277 21200 ft 413 kts 86°
2026-05-06 17:47 52.30283 18.62911 20731 ft 410 kts 86°
2026-05-06 17:47 52.30642 18.67521 20282 ft 406 kts 86°
2026-05-06 17:48 52.30995 18.72086 19845 ft 403 kts 86°
2026-05-06 17:48 52.31340 18.76563 19412 ft 401 kts 86°
2026-05-06 17:48 52.31685 18.81065 18974 ft 398 kts 86°
2026-05-06 17:48 52.32026 18.85540 18543 ft 396 kts 86°
2026-05-06 17:49 52.32365 18.90011 18076 ft 395 kts 86°
2026-05-06 17:49 52.32701 18.94454 17589 ft 392 kts 86°
2026-05-06 17:49 52.33032 18.98866 17124 ft 389 kts 86°
2026-05-06 17:49 52.33360 19.03248 16670 ft 386 kts 86°
2026-05-06 17:50 52.33682 19.07592 16231 ft 383 kts 86°
2026-05-06 17:50 52.34001 19.11891 15808 ft 380 kts 86°
2026-05-06 17:50 52.34316 19.16159 15391 ft 377 kts 86°
2026-05-06 17:50 52.34628 19.20417 14962 ft 374 kts 86°
2026-05-06 17:51 52.34924 19.24629 14635 ft 369 kts 88°
2026-05-06 17:51 52.35150 19.28732 14398 ft 365 kts 88°
2026-05-06 17:51 52.35528 19.32840 14133 ft 364 kts 81°
2026-05-06 17:51 52.36080 19.36852 13901 ft 364 kts 79°
2026-05-06 17:52 52.36689 19.40884 13660 ft 366 kts 78°
2026-05-06 17:52 52.37305 19.44935 13389 ft 367 kts 78°
2026-05-06 17:52 52.37911 19.48997 13119 ft 366 kts 78°
2026-05-06 17:52 52.38500 19.53028 12852 ft 364 kts 79°
2026-05-06 17:53 52.39078 19.57058 12592 ft 363 kts 79°
2026-05-06 17:53 52.39646 19.61082 12342 ft 361 kts 79°
2026-05-06 17:53 52.40205 19.65083 12017 ft 361 kts 79°
2026-05-06 17:53 52.40764 19.69108 11583 ft 364 kts 79°
2026-05-06 17:54 52.41323 19.73148 11160 ft 362 kts 79°
2026-05-06 17:54 52.41877 19.77166 10740 ft 359 kts 79°
2026-05-06 17:54 52.42425 19.81152 10328 ft 357 kts 79°
2026-05-06 17:54 52.42967 19.85108 9920 ft 354 kts 79°
2026-05-06 17:55 52.43500 19.88998 9792 ft 346 kts 79°
2026-05-06 17:55 52.44020 19.92808 9773 ft 337 kts 79°
2026-05-06 17:55 52.44521 19.96486 9751 ft 324 kts 79°
2026-05-06 17:55 52.45009 20.00083 9421 ft 322 kts 79°
2026-05-06 17:56 52.45495 20.03673 9083 ft 320 kts 80°
2026-05-06 17:56 52.45973 20.07222 8749 ft 318 kts 80°
2026-05-06 17:56 52.46449 20.10759 8417 ft 316 kts 80°
2026-05-06 17:56 52.46919 20.14263 8086 ft 314 kts 80°
2026-05-06 17:57 52.47387 20.17761 7763 ft 312 kts 80°
2026-05-06 17:57 52.47851 20.21229 7453 ft 310 kts 80°
2026-05-06 17:57 52.48310 20.24673 7161 ft 307 kts 80°
2026-05-06 17:57 52.48763 20.28082 6871 ft 305 kts 80°
2026-05-06 17:58 52.49214 20.31476 6584 ft 303 kts 80°
2026-05-06 17:58 52.49660 20.34847 6279 ft 301 kts 80°
2026-05-06 17:58 52.50096 20.38144 5982 ft 299 kts 80°
2026-05-06 17:58 52.50534 20.41467 5681 ft 296 kts 79°
2026-05-06 17:59 52.50964 20.44740 5424 ft 293 kts 79°
2026-05-06 17:59 52.51391 20.47995 5174 ft 289 kts 79°
2026-05-06 17:59 52.51811 20.51205 4931 ft 285 kts 79°
2026-05-06 17:59 52.52228 20.54387 4714 ft 283 kts 79°
2026-05-06 18:00 52.52637 20.57524 4486 ft 279 kts 79°
2026-05-06 18:00 52.53038 20.60605 4294 ft 269 kts 79°
2026-05-06 18:00 52.53414 20.63541 4076 ft 257 kts 81°
2026-05-06 18:00 52.53698 20.66360 3874 ft 243 kts 83°
2026-05-06 18:01 52.53941 20.69054 3680 ft 231 kts 83°
2026-05-06 18:01 52.54171 20.71621 3535 ft 227 kts 83°
2026-05-06 18:01 52.54402 20.74189 3371 ft 226 kts 83°
2026-05-06 18:01 52.54633 20.76743 3205 ft 226 kts 83°
2026-05-06 18:02 52.54863 20.79263 3068 ft 221 kts 82°
2026-05-06 18:02 52.55084 20.81668 2996 ft 204 kts 83°
2026-05-06 18:02 52.55287 20.83879 2978 ft 190 kts 83°
2026-05-06 18:02 52.55483 20.86030 2999 ft 190 kts 83°
2026-05-06 18:03 52.55677 20.88154 2982 ft 182 kts 83°
2026-05-06 18:03 52.55859 20.90141 2975 ft 171 kts 83°
2026-05-06 18:03 52.56034 20.92067 3022 ft 173 kts 84°
2026-05-06 18:03 52.55912 20.93968 2976 ft 161 kts 127°
2026-05-06 18:04 52.55090 20.94941 3022 ft 144 kts 170°
2026-05-06 18:04 52.54126 20.95199 3004 ft 140 kts 177°
2026-05-06 18:04 52.53166 20.95454 2999 ft 140 kts 177°
2026-05-06 18:04 52.52208 20.95702 2995 ft 139 kts 178°
2026-05-06 18:05 52.51251 20.95944 2988 ft 139 kts 178°
2026-05-06 18:05 52.50296 20.96183 2995 ft 139 kts 178°
2026-05-06 18:05 52.49343 20.96422 3003 ft 139 kts 178°
2026-05-06 18:05 52.48428 20.96251 2986 ft 130 kts 218°
2026-05-06 18:06 52.48093 20.94983 3019 ft 126 kts 265°
2026-05-06 18:06 52.47954 20.93565 3005 ft 129 kts 250°
2026-05-06 18:06 52.47724 20.92134 3002 ft 129 kts 257°
2026-05-06 18:06 52.47566 20.90689 2992 ft 128 kts 258°
2026-05-06 18:07 52.47419 20.89254 2990 ft 127 kts 258°
2026-05-06 18:07 52.47278 20.87829 2989 ft 127 kts 258°
2026-05-06 18:07 52.47138 20.86396 3004 ft 127 kts 258°
2026-05-06 18:07 52.46997 20.84937 2894 ft 132 kts 259°
2026-05-06 18:08 52.46854 20.83447 2695 ft 133 kts 259°
2026-05-06 18:08 52.46711 20.81953 2494 ft 132 kts 259°
2026-05-06 18:08 52.46572 20.80493 2296 ft 130 kts 260°
2026-05-06 18:08 52.46434 20.79037 2089 ft 128 kts 260°
2026-05-06 18:09 52.46297 20.77597 1900 ft 128 kts 261°
2026-05-06 18:09 52.46159 20.76136 1700 ft 130 kts 260°
2026-05-06 18:09 52.46020 20.74670 1488 ft 130 kts 261°
2026-05-06 18:09 52.45881 20.73204 1288 ft 132 kts 261°
2026-05-06 18:10 52.45739 20.71700 1093 ft 134 kts 261°
2026-05-06 18:10 52.45588 20.70197 810 ft 134 kts 261°
2026-05-06 18:10 52.45454 20.68685 578 ft 134 kts 262°
2026-05-06 18:10 52.45315 20.67188 406 ft 133 kts 261°
2026-05-06 18:11 52.45168 20.65705 340 ft 131 kts 262°
2026-05-06 18:11 52.45080 20.64722 335 ft 132 kts 261°
2026-05-06 18:11 52.44979 20.63640 331 ft 34 kts 261°
2026-05-06 18:11 52.44911 20.63397 336 ft 20 kts 193°
2026-05-06 18:12 52.44787 20.63418 336 ft 18 kts 171°
2026-05-06 18:12 52.44775 20.63421 332 ft 0 kts 172°
2026-05-06 18:13 52.44766 20.63423 334 ft 4 kts 172°
2026-05-06 18:13 52.44714 20.63435 332 ft 12 kts 172°
2026-05-06 18:14 52.44630 20.63510 337 ft 18 kts 103°
2026-05-06 18:14 52.44648 20.63752 337 ft 23 kts 81°
2026-05-06 18:14 52.44664 20.63923 333 ft 23 kts 82°
2026-05-06 18:14 52.44688 20.64175 335 ft 22 kts 81°
2026-05-06 18:15 52.44719 20.64499 336 ft 21 kts 82°
2026-05-06 18:15 52.44742 20.64734 336 ft 19 kts 81°
2026-05-06 18:15 52.44750 20.64823 337 ft 11 kts 81°
2026-05-06 18:15 52.44763 20.64958 335 ft 13 kts 81°
2026-05-06 18:16 52.44766 20.64998 332 ft 3 kts 81°
2026-05-06 18:16 52.44755 20.65042 333 ft 2 kts 165°
2026-05-06 18:16 52.44724 20.65020 336 ft 8 kts 206°
2026-05-06 18:16 52.44722 20.65019 336 ft 0 kts 206°